Date String (YYYY-MM-DD hh:mm:ss) UTC,Instrument flags,absolute air pressure of the measurement (hPa),sample flow rate (lpm),inlet stack bypass flow (lpm),air temperature of the measurement (°C),ambient temperature measured by the external sensor (°C),aerosol sample conditioner tube jacket temperature (°C),OPC LED temperature (°C),internal box temperature (°C),relative humidity of the measurement (%),span deviation,mass concentration of particles derived from Lorenz-Mie calculation of OPC scattering (μg/m³),mass concentration of particles derived from Lorenz-Mie calculation of OPC scattering (μg/m³),mass concentration of particles derived from Lorenz-Mie calculation of OPC scattering (μg/m³)
DateTimeUTC,F1_M11,P_M11,Q1_M11,Q2_M11,T1_M11,T2_M11,T3_M11,T4_M11,T5_M11,U1_M11,ZSPAN_M11,X0_M11,X2_M11,X1_M11
2023-08-23 12:00:00,SystemResetWarning,0835.2,5.00,000.00,028.2,025.4,000.0,036.7,029.6,23.0,0001.4,0014.45,0007.65,0006.83
2023-08-23 12:01:00,SystemResetWarning,0835.2,5.00,000.00,028.2,025.7,000.0,036.7,029.7,23.0,0001.4,0014.35,0007.63,0006.83
2023-08-23 12:02:00,SystemResetWarning,0835.3,5.00,000.00,028.2,026.0,000.0,036.7,029.8,23.1,0001.2,0014.20,0007.61,0006.84
2023-08-23 12:03:00,SystemResetWarning,0835.3,5.00,000.00,028.2,026.3,000.0,036.7,029.8,23.1,0001.1,0013.88,0007.55,0006.84
2023-08-23 12:04:00,SystemResetWarning,0835.4,5.00,000.00,028.2,026.5,000.0,036.7,029.9,23.2,0000.8,0014.05,0007.54,0006.85
2023-08-23 12:05:00,SystemResetWarning,0835.5,5.00,000.00,028.3,026.6,000.0,036.7,029.9,23.2,0000.8,0013.99,0007.55,0006.84
2023-08-23 12:06:00,SystemResetWarning,0835.3,5.00,000.00,028.3,026.8,000.0,036.7,029.9,23.1,0000.6,0013.68,0007.54,0006.85
2023-08-23 12:07:00,SystemResetWarning,0835.3,5.00,000.00,028.3,026.9,000.0,036.7,030.0,23.2,0000.5,0013.77,0007.51,0006.87
2023-08-23 12:08:00,SystemResetWarning,0835.3,5.01,000.00,028.3,027.0,000.0,036.7,030.0,23.2,0000.7,0013.18,0007.51,0006.87
2023-08-23 12:09:00,SystemResetWarning,0835.4,4.99,000.00,028.4,027.1,000.0,036.7,030.0,23.2,0000.8,0013.45,0007.54,0006.86
2023-08-23 12:10:00,SystemResetWarning,0835.4,4.99,000.00,028.4,027.1,000.0,036.8,030.1,23.1,0000.8,0012.65,0007.54,0006.88
2023-08-23 12:11:00,SystemResetWarning,0835.5,4.99,000.00,028.4,027.2,000.0,036.8,030.1,23.0,0000.8,0012.62,0007.54,0006.88
2023-08-23 12:12:00,SystemResetWarning,0835.5,4.99,000.00,028.5,027.3,000.0,036.8,030.2,22.7,0000.6,0012.64,0007.54,0006.87
2023-08-23 12:13:00,SystemResetWarning,0835.5,5.00,000.00,028.5,027.3,000.0,036.8,030.2,22.7,0000.5,0012.66,0007.56,0006.87
2023-08-23 12:14:00,SystemResetWarning,0835.5,5.00,000.00,028.5,027.4,000.0,036.8,030.2,22.8,0000.5,0012.76,0007.57,0006.86
2023-08-23 12:15:00,SystemResetWarning,0835.5,5.00,000.00,028.5,027.0,000.0,036.8,030.2,22.8,0000.9,0013.28,0007.58,0006.84
2023-08-23 12:16:00,SystemResetWarning,0835.5,5.01,000.00,028.5,025.1,000.0,036.7,029.9,22.9,0001.2,0012.82,0007.56,0006.82
2023-08-23 12:17:00,SystemResetWarning,0835.5,5.00,000.00,028.4,024.5,000.0,036.6,029.6,23.1,0001.2,0012.96,0007.60,0006.82
2023-08-23 12:18:00,SystemResetWarning,0835.5,5.01,000.00,028.3,024.6,000.0,036.6,029.5,23.3,0001.3,0012.75,0007.61,0006.80
2023-08-23 12:19:00,SystemResetWarning,0835.5,4.99,000.00,028.2,024.9,000.0,036.7,029.5,23.4,0001.6,0012.57,0007.59,0006.77
2023-08-23 12:20:00,SystemResetWarning,0835.5,4.99,000.00,028.2,025.3,000.0,036.7,029.6,23.5,0001.9,0012.11,0007.58,0006.77
2023-08-23 12:21:00,SystemResetWarning,0835.5,5.00,000.00,028.2,025.6,000.0,036.7,029.7,23.5,0001.7,0012.61,0007.59,0006.76
2023-08-23 12:22:00,SystemResetWarning,0835.5,5.01,000.00,028.2,025.9,000.0,036.7,029.7,23.5,0001.6,0013.10,0007.59,0006.76
2023-08-23 12:23:00,SystemResetWarning,0835.6,5.00,000.00,028.2,026.2,000.0,036.7,029.8,23.5,0002.0,0013.33,0007.60,0006.75
2023-08-23 12:24:00,SystemResetWarning,0835.6,5.00,000.00,028.2,026.4,000.0,036.7,029.8,23.4,0002.0,0013.36,0007.57,0006.74
2023-08-23 12:25:00,SystemResetWarning,0835.6,5.00,000.00,028.2,026.6,000.0,036.7,029.9,23.3,0001.8,0013.24,0007.56,0006.73
2023-08-23 12:26:00,SystemResetWarning,0835.6,5.00,000.00,028.3,026.7,000.0,036.7,029.9,23.3,0001.7,0012.51,0007.53,0006.73
2023-08-23 12:27:00,SystemResetWarning,0835.6,5.00,000.00,028.3,026.8,000.0,036.7,029.9,23.2,0001.6,0012.54,0007.55,0006.74
2023-08-23 12:28:00,SystemResetWarning,0835.6,5.00,000.00,028.3,026.9,000.0,036.7,030.0,23.2,0001.5,0013.16,0007.58,0006.73
2023-08-23 12:29:00,SystemResetWarning,0835.5,4.99,000.00,028.4,027.0,000.0,036.7,030.0,23.1,0001.7,0013.27,0007.57,0006.73
2023-08-23 12:30:00,SystemResetWarning,0835.5,4.98,000.00,028.4,027.1,000.0,036.8,030.1,23.0,0001.5,0013.25,0007.56,0006.73
2023-08-23 12:31:00,SystemResetWarning,0835.6,5.00,000.00,028.4,027.2,000.0,036.8,030.1,22.9,0001.1,0013.21,0007.55,0006.73
2023-08-23 12:32:00,SystemResetWarning,0835.6,5.00,000.00,028.4,027.2,000.0,036.8,030.1,22.9,0001.3,0012.93,0007.53,0006.73
2023-08-23 12:33:00,SystemResetWarning,0835.6,5.01,000.00,028.5,027.3,000.0,036.8,030.2,22.8,0001.6,0012.36,0007.51,0006.71
2023-08-23 12:34:00,SystemResetWarning,0835.7,5.00,000.00,028.5,027.3,000.0,036.8,030.2,22.8,0001.3,0012.20,0007.48,0006.70
2023-08-23 12:35:00,SystemResetWarning,0835.7,5.00,000.00,028.5,027.4,000.0,036.9,030.3,22.8,0001.2,0012.72,0007.50,0006.71
2023-08-23 12:36:00,SystemResetWarning,0835.7,4.98,000.00,028.6,027.4,000.0,036.9,030.3,22.9,0001.1,0012.94,0007.51,0006.71
2023-08-23 12:37:00,SystemResetWarning,0835.7,5.00,000.00,028.6,026.8,000.0,036.8,030.2,22.8,0000.9,0013.15,0007.52,0006.71
2023-08-23 12:38:00,SystemResetWarning,0835.7,5.01,000.00,028.5,024.9,000.0,036.7,029.8,22.9,0000.6,0013.43,0007.53,0006.72
2023-08-23 12:39:00,SystemResetWarning,0835.7,5.00,000.00,028.4,024.5,000.0,036.6,029.6,23.1,0000.5,0012.91,0007.47,0006.72
2023-08-23 12:40:00,SystemResetWarning,0835.7,5.01,000.00,028.3,024.7,000.0,036.7,029.5,23.2,0000.3,0012.63,0007.47,0006.70
2023-08-23 12:41:00,SystemResetWarning,0835.8,5.01,000.00,028.2,025.0,000.0,036.7,029.5,23.2,0000.2,0013.40,0007.48,0006.70
2023-08-23 12:42:00,SystemResetWarning,0835.8,5.00,000.00,028.2,025.4,000.0,036.7,029.6,23.3,0000.3,0013.73,0007.48,0006.69
2023-08-23 12:43:00,SystemResetWarning,0835.8,5.00,000.00,028.2,025.7,000.0,036.7,029.7,23.3,0000.5,0013.74,0007.50,0006.69
2023-08-23 12:44:00,SystemResetWarning,0835.8,5.00,000.00,028.2,026.0,000.0,036.7,029.8,23.3,0000.3,0014.03,0007.51,0006.70
2023-08-23 12:45:00,SystemResetWarning,0835.8,5.00,000.00,028.2,026.2,000.0,036.7,029.8,23.2,0000.1,0014.60,0007.55,0006.72
2023-08-23 12:46:00,SystemResetWarning,0835.8,4.99,000.00,028.3,026.4,000.0,036.7,029.9,23.2,0000.0,0014.00,0007.52,0006.71
2023-08-23 12:47:00,SystemResetWarning,0835.8,5.00,000.00,028.3,026.6,000.0,036.7,029.9,23.2,0000.5,0013.66,0007.51,0006.70
2023-08-23 12:48:00,SystemResetWarning,0835.8,5.00,000.00,028.3,026.8,000.0,036.7,030.0,23.2,0000.8,0014.80,0007.57,0006.71
2023-08-23 12:49:00,SystemResetWarning,0835.9,5.00,000.00,028.3,026.9,000.0,036.8,030.0,23.2,0001.0,0014.54,0007.57,0006.71
2023-08-23 12:50:00,SystemResetWarning,0835.9,5.00,000.00,028.4,027.0,000.0,036.8,030.0,23.2,0001.2,0014.61,0007.57,0006.71
2023-08-23 12:51:00,SystemResetWarning,0835.9,5.00,000.00,028.4,027.1,000.0,036.8,030.1,23.2,0001.3,0014.65,0007.59,0006.72
2023-08-23 12:52:00,SystemResetWarning,0835.9,5.00,000.00,028.4,027.2,000.0,036.8,030.1,23.2,0001.0,0014.21,0007.59,0006.73
2023-08-23 12:53:00,SystemResetWarning,0835.9,5.00,000.00,028.5,027.2,000.0,036.8,030.1,23.1,0000.8,0013.85,0007.58,0006.73
2023-08-23 12:54:00,SystemResetWarning,0835.9,4.99,000.00,028.5,027.3,000.0,036.8,030.2,23.1,0000.8,0014.77,0007.59,0006.74
2023-08-23 12:55:00,SystemResetWarning,0835.9,4.99,000.00,028.5,027.3,000.0,036.8,030.2,23.0,0001.0,0015.06,0007.58,0006.75
2023-08-23 12:56:00,SystemResetWarning,0835.9,5.00,000.00,028.5,027.4,000.0,036.9,030.2,23.0,0001.1,0014.72,0007.57,0006.74
2023-08-23 12:57:00,SystemResetWarning,0835.9,4.99,000.00,028.5,026.3,000.0,036.8,030.0,23.0,0000.9,0015.16,0007.63,0006.75
2023-08-23 12:58:00,SystemResetWarning,0835.9,5.01,000.00,028.4,024.8,000.0,036.7,029.8,23.1,0000.8,0016.17,0007.68,0006.77
2023-08-23 12:59:00,SystemResetWarning,0835.9,5.02,000.00,028.3,024.7,000.0,036.6,029.6,23.2,0000.7,0015.26,0007.63,0006.77
